Location: Prairie State College
(41.5244°N, 87.6382°W)
Time: 14:03:14
(UTC-05:00)

MSX - Visible Passes

Search period start: 17 April 2014 00:00
Search period end: 27 April 2014 00:00
Orbit: 893 x 908 km, 98.8° (Epoch: 15 April)

Date Brightness Start Highest point End Pass type
(mag) Time Alt. Az. Time Alt. Az. Time Alt. Az.
17 Apr 4.1 20:23:55 10° SE 20:29:25 49° ENE 20:34:58 10° N visible
17 Apr 5.7 22:06:49 10° SW 22:11:22 24° W 22:15:58 10° NW visible
18 Apr 4.1 20:26:42 10° SE 20:32:15 52° ENE 20:37:50 10° N visible
18 Apr 5.8 22:09:49 10° SW 22:14:15 23° W 22:18:42 10° NW visible
19 Apr 4.0 20:29:30 10° SSE 20:35:05 55° ENE 20:40:42 10° N visible
19 Apr 5.9 22:12:50 10° SW 22:17:07 21° W 22:21:26 10° NW visible
20 Apr 4.0 20:32:17 10° SSE 20:37:54 58° ENE 20:43:34 10° N visible
20 Apr 6.0 22:15:52 10° SW 22:20:00 20° W 22:24:10 10° NW visible
21 Apr 3.9 20:35:05 10° SSE 20:40:44 62° ENE 20:46:26 10° N visible
21 Apr 6.0 22:18:54 10° SW 22:22:52 19° W 22:26:53 10° NW visible
22 Apr 3.9 20:37:54 10° SSE 20:43:34 65° ENE 20:49:18 10° N visible
22 Apr 6.1 22:21:58 10° SW 22:25:45 18° W 22:29:34 10° NW visible
23 Apr 3.9 20:40:42 10° SSE 20:46:24 69° ENE 20:52:10 10° N visible
23 Apr 6.2 22:25:02 10° SW 22:28:38 17° W 22:32:15 10° NW visible
24 Apr 3.8 20:43:31 10° SSE 20:49:15 73° ENE 20:55:01 10° N visible
24 Apr 6.2 22:28:08 10° SW 22:31:31 16° W 22:34:55 10° NW visible
25 Apr 3.8 20:46:20 10° SSE 20:52:05 77° ENE 20:57:52 10° N visible
25 Apr 6.3 22:31:15 10° WSW 22:34:24 15° W 22:37:33 10° NW visible
26 Apr 3.8 20:49:10 10° SSE 20:54:55 81° ENE 21:00:43 10° NNW visible
26 Apr 6.3 22:34:25 10° WSW 22:37:17 14° W 22:40:10 10° WNW visible
